• Em Portugal
  • Lista de países
  • Para 7 dias
  • Temperatura da água
  • Mapas de satélite
  • Mapa do tempo
  • Widgets de tempo
  • user-avatar
    Iniciar Sessão

    Previsão horária em Amshanka

    Hoje, 21 Maio, Segunda-feira

    Tempo Temperatura Precipitação Vento Pressão Humidade
    00:00 +8°C° 0 mm 0 m/s 762 mmHg 71%
    01:00 +8°C° 0 mm 0 m/s 762 mmHg 72%
    02:00 +7°C° 0 mm 0 m/s 762 mmHg 77%
    03:00 +7°C° 0 mm 0 m/s 763 mmHg 77%
    04:00 +8°C° 0 mm 0 m/s 763 mmHg 76%
    05:00 +8°C° 0 mm 0 m/s 763 mmHg 76%
    06:00 +11°C° 0 mm 0 m/s 763 mmHg 68%
    07:00 +13°C° 0 mm 0 m/s 764 mmHg 61%
    08:00 +18°C° 0 mm 1 m/s 764 mmHg 53%
    09:00 +20°C° 0 mm 1 m/s 764 mmHg 49%
    10:00 +21°C° 0 mm 1 m/s 764 mmHg 45%
    11:00 +21°C° 0 mm 2 m/s 764 mmHg 40%
    12:00 +23°C° 0 mm 2 m/s 763 mmHg 40%
    13:00 +23°C° 0 mm 2 m/s 763 mmHg 39%
    14:00 +24°C° 0 mm 3 m/s 763 mmHg 38%
    15:00 +24°C° 0 mm 3 m/s 762 mmHg 41%
    16:00 +23°C° 0 mm 2 m/s 762 mmHg 43%
    17:00 +23°C° 0 mm 2 m/s 762 mmHg 45%
    18:00 +20°C° 0 mm 2 m/s 762 mmHg 54%
    19:00 +18°C° 0 mm 2 m/s 762 mmHg 62%
    20:00 +16°C° 0 mm 1 m/s 762 mmHg 71%
    21:00 +15°C° 0 mm 1 m/s 762 mmHg 72%
    22:00 +14°C° 0 mm 1 m/s 762 mmHg 74%
    23:00 +13°C° 0 mm 1 m/s 762 mmHg 75%

    Amanhã, 22 Maio, Terça-feira

    Tempo Temperatura Precipitação Vento Pressão Humidade
    00:00 +12°C° 0 mm 1 m/s 762 mmHg 77%
    01:00 +12°C° 0 mm 1 m/s 762 mmHg 78%
    02:00 +11°C° 0 mm 1 m/s 762 mmHg 80%
    03:00 +11°C° 0 mm 1 m/s 762 mmHg 80%
    04:00 +11°C° 0 mm 1 m/s 762 mmHg 80%
    05:00 +11°C° 0 mm 1 m/s 762 mmHg 79%
    06:00 +13°C° 0 mm 2 m/s 762 mmHg 73%
    07:00 +15°C° 0 mm 2 m/s 761 mmHg 66%
    08:00 +17°C° 0 mm 2 m/s 761 mmHg 59%
    09:00 +18°C° 0 mm 3 m/s 761 mmHg 54%
    10:00 +19°C° 0 mm 3 m/s 760 mmHg 49%
    11:00 +21°C° 0 mm 4 m/s 760 mmHg 45%
    12:00 +21°C° 0 mm 4 m/s 759 mmHg 44%
    13:00 +21°C° 0 mm 4 m/s 759 mmHg 43%
    14:00 +21°C° 0 mm 4 m/s 759 mmHg 42%
    15:00 +20°C° 0,1 mm 3 m/s 758 mmHg 49%
    16:00 +20°C° 0,1 mm 3 m/s 758 mmHg 56%
    17:00 +19°C° 0,1 mm 3 m/s 758 mmHg 63%
    18:00 +17°C° 0,1 mm 2 m/s 758 mmHg 72%
    19:00 +16°C° 0,1 mm 2 m/s 757 mmHg 81%
    20:00 +14°C° 0,1 mm 2 m/s 757 mmHg 89%
    21:00 +14°C° 0 mm 2 m/s 757 mmHg 91%
    22:00 +13°C° 0 mm 1 m/s 757 mmHg 93%
    23:00 +13°C° 0 mm 1 m/s 757 mmHg 95%

    Depois de amanhã, 23 Maio, Quarta-feira

    Tempo Temperatura Precipitação Vento Pressão Humidade
    00:00 +13°C° 0 mm 1 m/s 757 mmHg 96%
    01:00 +13°C° 0 mm 1 m/s 757 mmHg 97%
    02:00 +12°C° 0 mm 1 m/s 757 mmHg 97%
    03:00 +12°C° 0 mm 1 m/s 757 mmHg 97%
    04:00 +12°C° 0 mm 1 m/s 757 mmHg 97%
    05:00 +12°C° 0 mm 1 m/s 757 mmHg 97%
    06:00 +14°C° 0 mm 1 m/s 757 mmHg 92%
    07:00 +15°C° 0 mm 1 m/s 757 mmHg 86%
    08:00 +18°C° 0 mm 1 m/s 757 mmHg 81%
    09:00 +19°C° 0 mm 1 m/s 757 mmHg 74%
    10:00 +21°C° 0 mm 1 m/s 757 mmHg 66%
    11:00 +22°C° 0 mm 1 m/s 757 mmHg 59%
    12:00 +22°C° 0,4 mm 1 m/s 757 mmHg 60%
    13:00 +22°C° 0,4 mm 1 m/s 756 mmHg 61%
    14:00 +22°C° 0,4 mm 1 m/s 756 mmHg 61%
    15:00 +22°C° 0,5 mm 1 m/s 756 mmHg 65%
    16:00 +21°C° 0,5 mm 1 m/s 756 mmHg 69%
    17:00 +20°C° 0,5 mm 2 m/s 757 mmHg 73%
    18:00 +18°C° 0,4 mm 2 m/s 757 mmHg 79%
    19:00 +18°C° 0,4 mm 1 m/s 757 mmHg 84%
    20:00 +16°C° 0,4 mm 1 m/s 757 mmHg 90%
    21:00 +15°C° 0 mm 1 m/s 758 mmHg 92%
    22:00 +14°C° 0 mm 1 m/s 758 mmHg 93%
    23:00 +13°C° 0 mm 2 m/s 758 mmHg 94%

    24 Maio, Quinta-feira

    Tempo Temperatura Precipitação Vento Pressão Humidade
    00:00 +12°C° 0 mm 2 m/s 758 mmHg 94%
    01:00 +12°C° 0 mm 2 m/s 758 mmHg 94%
    02:00 +10°C° 0 mm 2 m/s 758 mmHg 94%
    03:00 +11°C° 0 mm 1 m/s 759 mmHg 93%
    04:00 +11°C° 0 mm 1 m/s 759 mmHg 93%
    05:00 +12°C° 0 mm 1 m/s 759 mmHg 92%
    06:00 +13°C° 0 mm 2 m/s 759 mmHg 87%
    07:00 +15°C° 0 mm 2 m/s 760 mmHg 81%
    08:00 +17°C° 0 mm 2 m/s 760 mmHg 75%
    09:00 +18°C° 0 mm 3 m/s 760 mmHg 68%
    10:00 +20°C° 0 mm 3 m/s 760 mmHg 62%
    11:00 +21°C° 0 mm 4 m/s 760 mmHg 55%
    12:00 +21°C° 0 mm 4 m/s 761 mmHg 53%
    13:00 +21°C° 0 mm 4 m/s 761 mmHg 51%
    14:00 +21°C° 0 mm 5 m/s 761 mmHg 49%
    15:00 +21°C° 0 mm 5 m/s 761 mmHg 51%
    16:00 +20°C° 0 mm 5 m/s 761 mmHg 53%
    17:00 +19°C° 0 mm 4 m/s 762 mmHg 54%
    18:00 +17°C° 0 mm 4 m/s 762 mmHg 59%
    19:00 +16°C° 0 mm 3 m/s 763 mmHg 63%
    20:00 +13°C° 0 mm 3 m/s 763 mmHg 68%
    21:00 +12°C° 0 mm 3 m/s 763 mmHg 68%
    22:00 +10°C° 0 mm 3 m/s 764 mmHg 67%
    23:00 +9°C° 0 mm 3 m/s 764 mmHg 67%

    25 Maio, Sexta-feira

    Tempo Temperatura Precipitação Vento Pressão Humidade
    00:00 +8°C° 0 mm 2 m/s 765 mmHg 69%
    01:00 +7°C° 0 mm 2 m/s 765 mmHg 71%
    02:00 +7°C° 0 mm 2 m/s 765 mmHg 73%
    03:00 +7°C° 0 mm 2 m/s 766 mmHg 71%
    04:00 +7°C° 0 mm 2 m/s 766 mmHg 69%
    05:00 +7°C° 0 mm 2 m/s 766 mmHg 67%
    06:00 +9°C° 0 mm 2 m/s 766 mmHg 61%
    07:00 +10°C° 0 mm 2 m/s 767 mmHg 54%
    08:00 +13°C° 0 mm 2 m/s 767 mmHg 48%
    09:00 +15°C° 0 mm 2 m/s 767 mmHg 44%
    10:00 +16°C° 0 mm 2 m/s 767 mmHg 40%
    11:00 +18°C° 0 mm 2 m/s 767 mmHg 36%
    12:00 +18°C° 0 mm 2 m/s 767 mmHg 35%
    13:00 +19°C° 0 mm 2 m/s 766 mmHg 35%
    14:00 +20°C° 0 mm 2 m/s 766 mmHg 34%
    15:00 +20°C° 0 mm 2 m/s 766 mmHg 37%
    16:00 +19°C° 0 mm 2 m/s 766 mmHg 39%
    17:00 +19°C° 0 mm 2 m/s 766 mmHg 41%
    18:00 +17°C° 0 mm 2 m/s 766 mmHg 49%
    19:00 +16°C° 0 mm 1 m/s 766 mmHg 57%
    20:00 +14°C° 0 mm 1 m/s 766 mmHg 66%
    21:00 +13°C° 0 mm 1 m/s 766 mmHg 67%
    22:00 +12°C° 0 mm 1 m/s 767 mmHg 68%
    23:00 +11°C° 0 mm 1 m/s 767 mmHg 69%

    26 Maio, Sábado

    Tempo Temperatura Precipitação Vento Pressão Humidade
    00:00 +10°C° 0 mm 1 m/s 767 mmHg 70%
    01:00 +10°C° 0 mm 1 m/s 768 mmHg 71%
    02:00 +10°C° 0 mm 1 m/s 768 mmHg 72%
    03:00 +10°C° 0 mm 1 m/s 768 mmHg 73%
    04:00 +10°C° 0 mm 1 m/s 768 mmHg 73%
    05:00 +10°C° 0 mm 1 m/s 768 mmHg 74%
    06:00 +13°C° 0 mm 2 m/s 768 mmHg 67%
    07:00 +15°C° 0 mm 2 m/s 768 mmHg 60%
    08:00 +17°C° 0 mm 2 m/s 768 mmHg 53%
    09:00 +18°C° 0 mm 2 m/s 768 mmHg 48%
    10:00 +20°C° 0 mm 2 m/s 768 mmHg 44%
    11:00 +21°C° 0 mm 3 m/s 768 mmHg 40%
    12:00 +21°C° 0 mm 3 m/s 768 mmHg 39%
    13:00 +22°C° 0 mm 3 m/s 767 mmHg 39%
    14:00 +22°C° 0 mm 3 m/s 767 mmHg 38%
    15:00 +22°C° 0 mm 3 m/s 767 mmHg 40%
    16:00 +23°C° 0 mm 2 m/s 766 mmHg 43%
    17:00 +23°C° 0 mm 2 m/s 766 mmHg 45%
    18:00 +20°C° 0 mm 2 m/s 766 mmHg 54%
    19:00 +18°C° 0 mm 2 m/s 766 mmHg 62%
    20:00 +16°C° 0 mm 2 m/s 765 mmHg 71%
    21:00 +15°C° 0 mm 2 m/s 766 mmHg 74%
    22:00 +14°C° 0 mm 2 m/s 766 mmHg 76%
    23:00 +13°C° 0 mm 2 m/s 766 mmHg 79%
    Mostrar mais